1485403200.13,57206,9.13,73634.0,-12.43,-44.73,-44.79,0,*68
1485403201.39,57207,9.06,73644.0,-12.41,-44.61,-44.73,0,*62
1485403202.68,57208,9.13,73642.0,-12.41,-44.73,-44.73,0,*6E
1485403203.94,57209,9.06,73636.5,-12.41,-44.73,-44.79,0,*65
1485403205.19,57210,9.13,73646.5,-12.43,-44.53,-44.73,0,*67
1485403206.42,57211,9.06,73638.8,-12.41,-44.53,-44.61,0,*67
1485403207.65,57212,9.13,73638.8,-12.41,-44.53,-44.53,0,*65
1485403208.88,57213,9.13,73636.5,-12.41,-44.41,-44.41,0,*64
1485403210.12,57214,9.13,73634.8,-12.41,-44.53,-44.61,0,*62
1485403211.35,57215,9.13,73634.3,-12.41,-44.53,-44.61,0,*63
1485403212.63,57216,9.06,73630.3,-12.41,-44.33,-44.33,0,*61
1485403213.87,57217,9.13,73630.8,-12.41,-44.53,-44.61,0,*61
1485403215.1,57218,9.13,73634.8,-12.41,-44.53,-44.61,0,*6E
1485403216.34,57219,9.13,73638.8,-12.41,-44.53,-44.61,0,*6F
1485403217.6,57220,9.13,73646.3,-12.41,-44.53,-44.73,0,*66
1485403218.89,57221,9.13,73634.8,-12.41,-44.73,-44.73,0,*65
1485403220.18,57222,9.13,73636.5,-12.41,-44.73,-44.73,0,*66
1485403221.47,57223,9.13,73638.8,-12.41,-44.73,-44.73,0,*67
1485403222.75,57224,9.13,73640.0,-12.41,-44.73,-44.73,0,*60
1485403224.02,57225,9.06,73640.8,-12.41,-44.53,-44.73,0,*63
1485403225.29,57226,9.13,73636.3,-12.41,-44.79,-44.73,0,*68
1485403226.52,57227,9.06,73634.8,-12.41,-44.61,-44.79,0,*6A
1485403227.79,57228,9.13,73624.5,-12.43,-44.73,-44.93,0,*60
1485403229.01,57229,9.06,73628.0,-12.43,-44.79,-44.79,0,*6F
1485403230.28,57230,9.06,73626.8,-12.41,-44.73,-44.79,0,*6F
1485403231.52,57231,9.13,73634.5,-12.43,-44.61,-44.73,0,*65
1485403232.78,57232,9.13,73634.5,-12.43,-44.33,-44.33,0,*65
1485403234.07,57233,9.13,73634.5,-12.41,-44.21,-44.33,0,*65
1485403235.28,57234,9.13,73632.3,-12.43,-44.53,-44.61,0,*62
1485403236.49,57235,9.13,73636.3,-12.43,-44.41,-44.61,0,*60
1485403237.75,57236,9.13,73638.0,-12.41,-44.33,-44.41,0,*66
1485403238.98,57237,9.13,73638.3,-12.41,-44.53,-44.61,0,*63
1485403240.25,57238,9.13,73632.8,-12.43,-44.73,-44.73,0,*6F
1485403241.49,57239,9.13,73632.3,-12.43,-44.73,-44.79,0,*64
1485403242.73,57240,9.06,73634.5,-12.43,-44.61,-44.73,0,*63
1485403243.95,57241,9.13,73632.8,-12.43,-44.53,-44.61,0,*60
1485403245.24,57242,9.13,73632.8,-12.41,-44.73,-44.73,0,*60
1485403246.48,57243,9.13,73634.5,-12.43,-44.53,-44.73,0,*61
1485403247.73,57244,9.13,73636.5,-12.45,-44.79,-44.79,0,*62
1485403248.96,57245,9.06,73632.8,-12.41,-44.61,-44.79,0,*6E
1485403250.17,57246,9.06,73634.3,-12.43,-44.61,-44.79,0,*6F
1485403251.47,57247,9.13,73634.3,-12.45,-44.93,-44.93,0,*61
1485403252.74,57248,9.13,73634.5,-12.45,-44.93,-44.99,0,*64
1485403254.01,57249,9.06,73634.5,-12.45,-44.93,-44.99,0,*65
1485403255.29,57250,9.13,73632.5,-12.45,-44.79,-44.93,0,*63
1485403256.56,57251,9.13,73636.5,-12.45,-44.61,-44.73,0,*65
1485403257.82,57252,9.13,73632.8,-12.45,-44.33,-44.53,0,*63
1485403259.06,57253,9.06,73638.5,-12.45,-44.61,-44.61,0,*64
1485403260.28,57254,9.13,73642.8,-12.43,-44.79,-44.79,0,*65
1485403261.49,57255,9.13,73646.3,-12.43,-44.53,-44.53,0,*64
1485403262.74,57256,9.13,73644.0,-12.43,-44.73,-44.79,0,*6D
1485403264.0,57257,9.06,73638.3,-12.45,-44.61,-44.73,0,*63
1485403265.27,57258,9.13,73650.0,-12.45,-44.53,-44.73,0,*6D
1485403266.54,57259,9.13,73640.3,-12.45,-44.61,-44.73,0,*6D
1485403267.8,57260,9.06,73640.5,-12.45,-44.41,-44.73,0,*65
1485403269.09,57261,9.13,73640.3,-12.45,-44.47,-44.67,0,*67
1485403270.36,57262,9.13,73636.8,-12.45,-44.53,-44.73,0,*64
1485403271.63,57263,9.13,73642.0,-12.45,-44.61,-44.73,0,*64
1485403272.87,57264,9.06,73636.5,-12.45,-44.61,-44.79,0,*69
1485403274.11,57265,9.13,73632.8,-12.45,-44.61,-44.79,0,*68
1485403275.37,57266,9.13,73638.8,-12.45,-44.67,-44.79,0,*6D
1485403276.64,57267,9.06,73634.5,-12.45,-44.53,-44.73,0,*61
1485403277.88,57268,9.13,73632.5,-12.45,-44.61,-44.79,0,*65
1485403279.13,57269,9.06,73638.0,-12.45,-44.79,-44.79,0,*6D
1485403280.4,57270,9.13,73632.8,-12.45,-44.67,-44.79,0,*6A
1485403281.69,57271,9.06,73626.3,-12.45,-44.73,-44.73,0,*64
1485403282.96,57272,9.13,73636.3,-12.45,-44.67,-44.79,0,*68
1485403284.21,57273,9.06,73632.5,-12.45,-44.79,-44.87,0,*67
1485403285.46,57274,9.13,73634.0,-12.45,-44.79,-44.87,0,*60
1485403286.73,57275,9.06,73638.0,-12.45,-44.61,-44.73,0,*63
1485403288.03,57276,9.06,73628.8,-12.45,-44.73,-44.93,0,*6D
1485403289.28,57277,9.06,73628.5,-12.45,-44.79,-44.79,0,*62
1485403290.54,57278,9.06,73626.0,-12.45,-44.67,-44.79,0,*62
1485403291.81,57279,9.06,73620.0,-12.45,-44.67,-44.79,0,*63
1485403293.08,57280,9.13,73624.0,-12.45,-44.73,-44.79,0,*60
1485403294.34,57281,9.13,73634.3,-12.45,-44.61,-44.67,0,*6D
1485403295.61,57282,9.13,73636.0,-12.45,-44.73,-44.79,0,*62
1485403296.88,57283,9.06,73630.0,-12.45,-44.53,-44.73,0,*6B
1485403298.14,57284,9.06,73628.3,-12.45,-44.61,-44.67,0,*68
1485403299.39,57285,9.06,73630.5,-12.45,-44.79,-44.79,0,*6F
1485403300.64,57286,9.13,73634.3,-12.45,-44.79,-44.87,0,*6D
1485403301.91,57287,9.06,73632.5,-12.49,-44.73,-44.87,0,*6A
1485403303.16,57288,9.13,73632.3,-12.45,-44.79,-44.87,0,*63
1485403304.42,57289,9.13,73634.3,-12.45,-44.87,-44.87,0,*63
1485403305.67,57290,9.06,73636.8,-12.45,-44.87,-44.87,0,*6B
1485403306.94,57291,9.13,73632.0,-12.49,-44.73,-44.87,0,*6D
1485403308.22,57292,9.06,73628.8,-12.49,-44.93,-44.87,0,*60
1485403309.49,57293,9.13,73628.0,-12.49,-44.73,-44.87,0,*6F
1485403310.78,57294,9.13,73632.3,-12.49,-44.73,-44.73,0,*63
1485403312.08,57295,9.13,73636.0,-12.49,-44.67,-44.73,0,*67
1485403313.33,57296,9.06,73634.8,-12.49,-44.87,-44.87,0,*61
1485403314.62,57297,9.06,73632.5,-12.49,-44.93,-45.07,0,*6C
1485403315.87,57298,9.06,73634.3,-12.51,-44.73,-44.87,0,*6D
1485403317.14,57299,9.06,73636.3,-12.51,-44.93,-45.07,0,*6B
1485403318.44,57300,9.06,73636.0,-12.49,-44.73,-44.93,0,*61
1485403319.69,57301,9.13,73642.0,-12.51,-44.73,-44.87,0,*6C
1485403320.96,57302,9.13,73644.3,-12.49,-44.53,-44.73,0,*6F
1485403322.25,57303,9.06,73638.8,-12.49,-44.93,-45.07,0,*60
1485403323.55,57304,9.13,73642.3,-12.49,-44.73,-44.93,0,*65
1485403324.82,57305,9.06,73638.3,-12.49,-44.73,-44.87,0,*61
1485403326.09,57306,9.13,73642.3,-12.51,-45.07,-45.07,0,*60
1485403327.36,57307,9.13,73644.5,-12.49,-44.73,-44.87,0,*63
1485403328.61,57308,9.06,73636.8,-12.51,-44.53,-44.73,0,*6C
1485403329.86,57309,9.06,73642.3,-12.51,-44.73,-44.87,0,*64
1485403331.1,57310,9.13,73642.0,-12.51,-45.07,-45.13,0,*62
1485403332.34,57311,9.06,73636.8,-12.51,-45.07,-45.13,0,*63
1485403333.59,57312,9.06,73638.0,-12.51,-44.73,-44.87,0,*6E
1485403334.84,57313,9.13,73644.0,-12.51,-44.73,-44.87,0,*6F
1485403336.14,57314,9.06,73642.8,-12.53,-44.93,-44.93,0,*61
1485403337.42,57315,9.06,73642.3,-12.51,-44.73,-44.93,0,*6C
1485403338.67,57316,9.06,73636.3,-12.51,-44.87,-44.93,0,*64
1485403339.92,57317,9.06,73642.0,-12.53,-44.99,-45.13,0,*61
1485403341.16,57318,9.06,73640.5,-12.53,-45.13,-45.13,0,*6D
1485403342.4,57319,9.06,73640.8,-12.53,-44.99,-44.99,0,*6C
1485403343.65,57320,9.06,73640.5,-12.53,-44.99,-45.21,0,*64
1485403344.87,57321,9.06,73640.3,-12.55,-44.99,-45.13,0,*62
1485403346.13,57322,9.06,73636.3,-12.55,-44.79,-44.93,0,*66
1485403347.37,57323,9.13,73644.0,-12.55,-44.93,-44.99,0,*69
1485403348.59,57324,9.06,73640.0,-12.55,-44.99,-44.99,0,*64
1485403349.86,57325,9.06,73638.8,-12.53,-44.93,-44.99,0,*69
1485403351.17,57326,9.06,73638.0,-12.53,-44.73,-44.93,0,*6E
1485403352.44,57327,9.06,73640.5,-12.53,-44.99,-44.93,0,*6B
1485403353.69,57328,9.06,73640.8,-12.53,-44.79,-44.99,0,*60
1485403354.97,57329,9.06,73636.3,-12.53,-44.93,-44.99,0,*65
1485403356.27,57330,9.06,73634.3,-12.53,-44.73,-44.93,0,*69
1485403357.57,57331,9.06,73636.8,-12.53,-44.93,-44.93,0,*66
1485403358.82,57332,9.06,73630.8,-12.55,-44.93,-44.99,0,*69
1485403360.07,57333,9.06,73628.3,-12.55,-44.79,-44.93,0,*66
1485403361.36,57334,9.06,73630.8,-12.53,-44.79,-44.93,0,*67
1485403362.66,57335,9.06,73630.3,-12.57,-44.93,-44.93,0,*66
1485403363.9,57336,9.06,73628.0,-12.55,-44.61,-44.93,0,*6A
1485403365.18,57337,9.06,73634.3,-12.53,-44.79,-44.93,0,*64
1485403366.44,57338,9.06,73632.8,-12.55,-44.99,-44.93,0,*63
1485403367.71,57339,9.06,73638.0,-12.55,-44.73,-44.93,0,*66
1485403368.98,57340,9.06,73636.5,-12.57,-44.73,-44.79,0,*6E
1485403370.23,57341,9.06,73642.3,-12.57,-44.79,-44.79,0,*65
1485403371.51,57342,9.13,73640.3,-12.57,-44.79,-44.93,0,*62
1485403372.78,57343,9.06,73638.8,-12.57,-44.93,-44.99,0,*6D
1485403374.05,57344,9.06,73636.0,-12.57,-44.93,-44.99,0,*6A
1485403375.35,57345,9.06,73638.5,-12.57,-44.93,-44.93,0,*61
1485403376.61,57346,9.06,73636.8,-12.57,-44.61,-44.73,0,*61
1485403377.86,57347,9.06,73638.0,-12.57,-44.79,-44.79,0,*63
1485403379.13,57348,9.06,73638.0,-12.57,-44.73,-44.79,0,*66
1485403380.37,57349,9.06,73640.5,-12.57,-44.61,-44.79,0,*64
1485403381.64,57350,9.06,73638.0,-12.57,-44.93,-44.99,0,*6F
1485403382.92,57351,9.06,73638.8,-12.57,-44.79,-44.93,0,*60
1485403384.17,57352,9.06,73640.5,-12.57,-44.79,-44.79,0,*67
1485403385.42,57353,9.06,73640.8,-12.57,-44.79,-44.79,0,*66
1485403386.66,57354,9.06,73642.8,-12.57,-44.53,-44.53,0,*61
1485403387.92,57355,9.06,73640.0,-12.57,-44.93,-44.79,0,*64
1485403389.17,57356,9.06,73644.0,-12.57,-44.99,-44.99,0,*63
1485403390.44,57357,9.06,73642.5,-12.57,-44.53,-44.73,0,*60
1485403391.74,57358,9.06,73648.5,-12.57,-44.93,-44.93,0,*6D
1485403392.98,57359,9.06,73640.5,-12.57,-44.99,-44.99,0,*6C
1485403394.26,57360,9.06,73640.5,-12.57,-44.79,-44.93,0,*62
1485403395.51,57361,9.06,73642.0,-12.59,-44.67,-44.87,0,*67
1485403396.75,57362,9.06,73646.8,-12.57,-44.61,-44.79,0,*6D
1485403397.99,57363,9.06,73640.3,-12.57,-44.61,-44.79,0,*6C
1485403399.24,57364,9.06,73640.5,-12.57,-44.79,-44.79,0,*62
1485403400.51,57365,9.06,73642.3,-12.57,-44.61,-44.73,0,*60
1485403401.74,57366,9.06,73642.8,-12.59,-44.79,-44.87,0,*6F
1485403403.02,57367,9.06,73646.0,-12.57,-44.79,-44.93,0,*65
1485403404.32,57368,9.06,73640.0,-12.57,-44.93,-44.93,0,*6E
1485403405.54,57369,9.06,73642.8,-12.59,-44.87,-44.99,0,*6E
1485403406.79,57370,9.06,73642.3,-12.59,-45.07,-44.99,0,*6F
1485403408.02,57371,9.06,73644.5,-12.59,-44.87,-44.99,0,*67
1485403409.32,57372,9.13,73646.0,-12.57,-44.73,-44.93,0,*6B
1485403410.55,57373,9.06,73644.0,-12.59,-44.87,-44.99,0,*65
1485403411.78,57374,9.06,73636.8,-12.59,-44.87,-44.87,0,*6D
1485403413.0,57375,9.06,73640.8,-12.59,-44.99,-44.99,0,*6C
1485403414.23,57376,9.06,73640.5,-12.59,-44.87,-44.99,0,*60
1485403415.47,57377,9.06,73638.3,-12.57,-44.99,-44.99,0,*60
1485403416.7,57378,9.06,73638.3,-12.59,-45.21,-45.21,0,*61
1485403417.97,57379,9.06,73642.3,-12.63,-45.07,-45.07,0,*69
1485403419.24,57380,9.06,73638.3,-12.63,-45.07,-45.07,0,*6F
1485403420.47,57381,9.06,73644.8,-12.63,-44.87,-44.99,0,*61
1485403421.72,57382,9.06,73640.8,-12.63,-44.99,-45.07,0,*6B
1485403422.95,57383,9.06,73636.0,-12.63,-44.87,-44.99,0,*63
1485403424.2,57384,9.06,73632.5,-12.63,-44.99,-45.07,0,*6D
1485403425.49,57385,9.06,73634.0,-12.65,-44.93,-45.07,0,*60
1485403426.72,57386,9.06,73632.0,-12.63,-45.21,-45.21,0,*69
1485403428.02,57387,9.06,73634.8,-12.65,-44.93,-45.07,0,*62
1485403429.29,57388,9.06,73636.5,-12.65,-44.87,-45.07,0,*68
1485403430.56,57389,9.06,73636.3,-12.63,-45.07,-45.07,0,*66
1485403431.83,57390,9.06,73636.0,-12.65,-45.07,-45.13,0,*6D
1485403433.12,57391,9.06,73642.5,-12.65,-44.93,-45.07,0,*65
1485403434.36,57392,9.06,73644.0,-12.63,-44.79,-44.87,0,*6D
1485403435.63,57393,9.06,73636.8,-12.65,-45.07,-44.87,0,*62
1485403436.92,57394,9.06,73638.8,-12.65,-44.93,-45.07,0,*60
1485403438.19,57395,9.06,73634.0,-12.65,-45.07,-45.13,0,*68
1485403439.41,57396,9.06,73636.3,-12.63,-44.79,-44.79,0,*68
1485403440.66,57397,9.06,73636.8,-12.63,-44.67,-44.87,0,*67
1485403441.92,57398,9.06,73638.8,-12.67,-44.87,-44.93,0,*67
1485403443.21,57399,9.06,73636.8,-12.65,-45.07,-45.07,0,*61
1485403444.48,57400,9.06,73644.5,-12.65,-44.93,-45.13,0,*6F
1485403445.71,57401,9.06,73642.5,-12.63,-44.87,-44.99,0,*6E
1485403446.94,57402,9.06,73644.3,-12.63,-44.79,-44.99,0,*6C
1485403448.2,57403,9.06,73644.5,-12.65,-45.07,-45.13,0,*60
1485403449.47,57404,9.06,73642.8,-12.65,-45.07,-45.13,0,*67
1485403450.74,57405,9.06,73640.0,-12.65,-45.13,-45.27,0,*64
1485403452.02,57406,9.06,73646.0,-12.65,-44.87,-44.93,0,*65
1485403453.29,57407,9.06,73646.8,-12.67,-45.07,-44.93,0,*6F
1485403454.56,57408,9.06,73642.0,-12.67,-44.93,-45.07,0,*60
1485403455.84,57409,9.06,73644.5,-12.67,-44.93,-44.93,0,*6D
1485403457.12,57410,9.06,73646.3,-12.67,-44.93,-44.93,0,*65
1485403458.39,57411,9.06,73646.8,-12.67,-44.93,-45.07,0,*68
1485403459.66,57412,9.06,73646.0,-12.67,-44.93,-45.07,0,*6B
1485403460.91,57413,9.06,73648.0,-12.67,-44.87,-45.07,0,*6F
1485403462.18,57414,9.06,73640.5,-12.67,-44.73,-44.93,0,*6F
1485403463.46,57415,9.06,73642.3,-12.67,-44.93,-44.93,0,*60
1485403464.71,57416,9.06,73646.0,-12.67,-44.67,-44.87,0,*6D
1485403465.96,57417,9.06,73640.3,-12.67,-44.87,-44.93,0,*67
1485403467.19,57418,9.06,73640.3,-12.67,-44.87,-44.87,0,*6D
1485403468.45,57419,9.06,73642.8,-12.67,-44.79,-44.93,0,*68
1485403469.73,57420,9.06,73638.0,-12.67,-44.93,-44.93,0,*66
1485403471.0,57421,9.06,73636.3,-12.67,-44.73,-44.93,0,*69
1485403472.27,57422,9.06,73638.3,-12.67,-44.93,-45.07,0,*68
1485403473.52,57423,9.06,73636.0,-12.67,-45.27,-45.13,0,*62
1485403474.74,57424,9.06,73632.8,-12.67,-45.21,-45.13,0,*63
1485403476.01,57425,9.06,73636.8,-12.67,-44.93,-45.07,0,*6F
1485403477.27,57426,9.06,73642.8,-12.67,-44.79,-44.93,0,*64
1485403478.49,57427,9.06,73648.8,-12.67,-44.79,-44.99,0,*6F
1485403479.71,57428,9.06,73644.5,-12.67,-44.99,-45.13,0,*6D
1485403480.93,57429,9.06,73642.8,-12.67,-45.13,-45.21,0,*6E
1485403482.17,57430,9.06,73640.5,-12.67,-45.07,-45.13,0,*62
1485403483.38,57431,9.06,73638.3,-12.67,-45.33,-45.33,0,*66
1485403484.63,57432,9.06,73642.8,-12.67,-45.07,-45.13,0,*60
1485403485.84,57433,9.06,73640.0,-12.67,-45.13,-45.13,0,*64
1485403487.07,57434,9.06,73640.8,-12.67,-44.99,-45.21,0,*61
1485403488.29,57435,9.06,73644.5,-12.67,-45.13,-45.21,0,*63
1485403489.51,57436,9.06,73644.3,-12.67,-45.13,-45.21,0,*60
1485403490.72,57437,9.06,73642.0,-12.69,-44.99,-45.13,0,*6D
1485403491.93,57438,9.06,73640.8,-12.69,-45.13,-45.13,0,*61
1485403493.15,57439,9.06,73642.3,-12.69,-44.99,-45.13,0,*63
1485403494.36,57440,9.06,73640.3,-12.69,-45.13,-45.13,0,*6E
1485403495.57,57441,9.06,73640.8,-12.69,-45.13,-44.99,0,*6C
1485403496.81,57442,9.06,73640.0,-12.69,-44.99,-44.93,0,*66
1485403498.07,57443,9.06,73636.8,-12.69,-44.79,-44.93,0,*69
1485403499.33,57444,9.06,73640.5,-12.73,-45.07,-45.07,0,*61
1485403500.57,57445,9.06,73642.8,-12.69,-44.93,-44.99,0,*61
1485403501.78,57446,9.06,73640.0,-12.73,-45.21,-45.13,0,*62
1485403503.02,57447,9.06,73642.3,-12.69,-45.07,-45.13,0,*6C
1485403504.24,57448,9.06,73642.5,-12.73,-44.87,-44.99,0,*62
1485403505.45,57449,9.06,73640.8,-12.73,-44.99,-44.99,0,*6C
1485403506.69,57450,9.06,73642.0,-12.73,-44.99,-45.07,0,*62
1485403507.92,57451,9.06,73642.8,-12.73,-44.99,-45.07,0,*63
1485403509.17,57452,9.06,73636.5,-12.73,-44.87,-45.07,0,*6F
1485403510.4,57453,9.06,73638.8,-12.73,-44.99,-45.07,0,*61
1485403511.62,57454,9.06,73640.0,-12.73,-44.99,-44.99,0,*60
1485403512.83,57455,9.06,73644.3,-12.73,-44.61,-44.99,0,*66
1485403514.05,57456,9.06,73640.3,-12.73,-44.79,-44.87,0,*63
1485403515.29,57457,9.06,73642.5,-12.73,-44.67,-44.87,0,*6D
1485403516.51,57458,9.06,73636.3,-12.73,-44.87,-44.99,0,*63
1485403517.74,57459,9.06,73642.5,-12.73,-44.67,-44.99,0,*6C
1485403518.99,57460,9.06,73642.0,-12.75,-44.87,-44.99,0,*6E
1485403520.23,57461,9.06,73644.3,-12.75,-44.79,-44.79,0,*60
1485403521.47,57462,9.06,73636.5,-12.77,-44.93,-45.13,0,*68
1485403522.72,57463,9.06,73644.8,-12.75,-44.87,-44.99,0,*6D
1485403523.96,57464,9.06,73644.5,-12.75,-44.79,-44.99,0,*6B
1485403525.21,57465,9.06,73634.8,-12.75,-44.79,-44.79,0,*64
1485403526.47,57466,9.06,73636.8,-12.75,-44.67,-44.79,0,*68
1485403527.72,57467,9.06,73638.8,-12.75,-44.79,-44.87,0,*67
1485403528.98,57468,9.06,73636.5,-12.75,-44.67,-44.99,0,*68
1485403530.25,57469,9.06,73634.0,-12.77,-44.73,-44.93,0,*64
1485403531.49,57470,9.06,73634.0,-12.75,-44.79,-44.79,0,*60
1485403532.76,57471,9.06,73638.0,-12.75,-44.87,-45.07,0,*68
1485403534.01,57472,9.06,73640.0,-12.75,-44.87,-44.99,0,*6D
1485403535.28,57473,9.06,73630.8,-12.75,-44.87,-45.07,0,*6A
1485403536.54,57474,9.06,73632.8,-12.75,-44.99,-45.07,0,*62
1485403537.79,57475,9.06,73628.8,-12.75,-44.87,-44.99,0,*6A
1485403539.05,57476,9.06,73632.0,-12.75,-44.99,-45.07,0,*60
1485403540.29,57477,9.06,73638.5,-12.77,-44.99,-45.07,0,*63
1485403541.56,57478,9.06,73638.8,-12.75,-44.87,-45.07,0,*61
1485403542.78,57479,9.06,73642.5,-12.77,-44.87,-44.87,0,*6B
1485403544.03,57480,9.06,73636.8,-12.77,-44.87,-45.07,0,*64
1485403545.29,57481,9.06,73642.8,-12.75,-44.99,-45.07,0,*68
1485403546.54,57482,9.06,73642.8,-12.75,-44.79,-44.79,0,*6D
1485403547.8,57483,9.06,73638.0,-12.75,-44.67,-44.87,0,*62
1485403549.04,57484,9.06,73640.5,-12.75,-44.61,-44.79,0,*62
1485403550.29,57485,9.06,73640.0,-12.77,-44.73,-44.87,0,*63
1485403551.52,57486,9.06,73640.5,-12.77,-44.93,-45.13,0,*62
1485403552.77,57487,9.06,73638.5,-12.75,-44.87,-44.87,0,*68
1485403554.02,57488,9.06,73640.5,-12.77,-44.87,-44.93,0,*60
1485403555.27,57489,9.06,73634.3,-12.77,-44.73,-44.87,0,*6F
1485403556.5,57490,9.06,73642.0,-12.77,-44.33,-44.53,0,*6A
1485403557.76,57491,9.06,73638.5,-12.77,-44.67,-44.73,0,*68
1485403558.98,57492,9.06,73636.0,-12.77,-44.79,-44.87,0,*6F
1485403560.22,57493,9.06,73638.3,-12.75,-44.61,-44.87,0,*65
1485403561.46,57494,9.06,73640.8,-12.77,-44.53,-44.73,0,*6A
1485403562.73,57495,9.06,73634.0,-12.77,-44.67,-44.73,0,*6C
1485403563.96,57496,9.06,73638.3,-12.77,-44.53,-44.67,0,*6D
1485403565.21,57497,9.06,73638.0,-12.77,-44.47,-44.47,0,*6B
1485403566.45,57498,9.06,73642.0,-12.75,-44.41,-44.61,0,*64
1485403567.71,57499,9.06,73642.8,-12.75,-44.47,-44.61,0,*63
1485403568.97,57500,9.06,73640.0,-12.77,-44.67,-44.73,0,*61
1485403570.21,57501,9.06,73638.0,-12.77,-44.73,-44.87,0,*6E
1485403571.45,57502,9.06,73640.8,-12.75,-44.61,-44.79,0,*6D
1485403572.7,57503,9.06,73640.3,-12.77,-44.47,-44.47,0,*67
1485403573.97,57504,9.06,73636.8,-12.75,-44.27,-44.47,0,*64
1485403575.22,57505,9.06,73646.3,-12.75,-44.41,-44.47,0,*65
1485403576.5,57506,9.06,73638.3,-12.75,-44.47,-44.47,0,*60
1485403577.72,57507,9.06,73650.5,-12.77,-44.27,-44.27,0,*63
1485403578.95,57508,9.06,73644.0,-12.75,-44.41,-44.41,0,*6E
1485403580.21,57509,9.06,73640.8,-12.75,-44.41,-44.47,0,*69
1485403581.46,57510,9.06,73640.8,-12.75,-44.41,-44.47,0,*61
1485403582.71,57511,9.06,73650.0,-12.75,-44.41,-44.47,0,*60
1485403583.95,57512,9.06,73644.3,-12.75,-44.61,-44.79,0,*6C
1485403585.16,57513,9.06,73642.3,-12.73,-44.61,-44.79,0,*6B
1485403586.42,57514,9.06,73640.5,-12.75,-44.27,-44.47,0,*65
1485403587.7,57515,9.06,73640.8,-12.75,-44.47,-44.67,0,*60
1485403588.99,57516,9.06,73646.3,-12.75,-44.47,-44.67,0,*63
1485403590.24,57517,9.06,73642.5,-12.75,-44.41,-44.47,0,*66
1485403591.5,57518,9.06,73636.3,-12.75,-44.67,-44.79,0,*60
1485403592.76,57519,9.06,73636.3,-12.75,-44.67,-44.79,0,*61
1485403594.0,57520,9.06,73638.8,-12.75,-44.61,-44.79,0,*6D
1485403595.26,57521,9.06,73640.5,-12.75,-44.61,-44.67,0,*63
1485403596.54,57522,9.06,73636.8,-12.75,-44.67,-44.67,0,*66
1485403597.78,57523,9.06,73638.8,-12.77,-44.67,-44.87,0,*6B
1485403599.03,57524,9.06,73636.8,-12.77,-44.87,-44.93,0,*67
1485403600.28,57525,9.06,73640.5,-12.75,-44.61,-44.67,0,*67
1485403601.53,57526,9.06,73642.0,-12.75,-44.79,-44.87,0,*63
1485403602.8,57527,9.06,73640.5,-12.75,-44.67,-44.87,0,*6D
1485403604.06,57528,9.06,73636.3,-12.75,-44.67,-44.79,0,*63
1485403605.32,57529,9.06,73634.0,-12.75,-44.61,-44.67,0,*6B
1485403606.58,57530,9.06,73636.8,-12.75,-44.67,-44.61,0,*63
1485403607.86,57531,9.06,73644.8,-12.75,-44.47,-44.47,0,*64
1485403609.14,57532,9.06,73646.8,-12.75,-44.47,-44.67,0,*65
1485403610.4,57533,9.06,73646.3,-12.75,-44.47,-44.61,0,*62
1485403611.64,57534,9.06,73640.0,-12.75,-44.61,-44.79,0,*68
1485403612.9,57535,9.06,73646.0,-12.77,-44.67,-44.73,0,*67
1485403614.16,57536,9.06,73640.0,-12.75,-44.67,-44.79,0,*6C
1485403615.42,57537,9.06,73644.0,-12.75,-44.67,-44.79,0,*6D
1485403616.7,57538,9.06,73638.5,-12.75,-44.47,-44.47,0,*6D
1485403617.94,57539,9.06,73640.8,-12.77,-44.47,-44.53,0,*6B
1485403619.19,57540,9.06,73638.8,-12.75,-44.41,-44.47,0,*64
1485403620.45,57541,9.06,73642.0,-12.75,-44.47,-44.61,0,*67
1485403621.71,57542,9.06,73640.8,-12.75,-44.61,-44.67,0,*66
1485403622.95,57543,9.06,73644.5,-12.75,-44.27,-44.41,0,*61
1485403624.23,57544,9.06,73642.5,-12.75,-44.13,-44.13,0,*66
1485403625.47,57545,9.06,73644.5,-12.75,-44.27,-44.41,0,*67
1485403626.72,57546,9.06,73650.0,-12.75,-44.27,-44.41,0,*64
1485403627.97,57547,9.06,73644.8,-12.75,-44.41,-44.47,0,*63
1485403629.21,57548,9.06,73640.0,-12.75,-44.27,-44.41,0,*6A
1485403630.46,57549,9.06,73642.8,-12.75,-44.27,-44.27,0,*6B
1485403631.68,57550,9.06,73638.8,-12.73,-44.41,-44.47,0,*63
1485403632.91,57551,9.06,73638.5,-12.73,-44.41,-44.47,0,*62
1485403634.12,57552,9.06,73638.8,-12.73,-44.41,-44.61,0,*65
1485403635.35,57553,9.06,73636.0,-12.73,-44.67,-44.61,0,*60
1485403636.6,57554,9.06,73638.0,-12.73,-44.47,-44.67,0,*63
1485403637.81,57555,9.06,73636.3,-12.73,-44.41,-44.61,0,*62
1485403639.04,57556,9.06,73636.3,-12.73,-44.61,-44.67,0,*65
1485403640.26,57557,9.06,73634.8,-12.69,-44.61,-44.79,0,*60
1485403641.49,57558,9.06,73642.8,-12.73,-44.67,-44.87,0,*63
1485403642.71,57559,9.06,73638.8,-12.73,-44.61,-44.87,0,*64
1485403643.95,57560,9.06,73640.0,-12.73,-44.67,-44.87,0,*68
1485403645.15,57561,9.06,73642.5,-12.69,-44.41,-44.53,0,*6F
1485403646.41,57562,9.06,73634.5,-12.73,-44.47,-44.67,0,*66
1485403647.65,57563,9.06,73638.0,-12.73,-44.67,-44.87,0,*6B
1485403648.88,57564,9.06,73634.3,-12.73,-44.47,-44.41,0,*64
1485403650.15,57565,9.06,73632.5,-12.73,-44.21,-44.21,0,*63
1485403651.35,57566,9.06,73630.3,-12.73,-44.41,-44.61,0,*62
1485403652.61,57567,9.0,73630.5,-12.73,-44.47,-44.67,0,*63
1485403653.84,57568,9.06,73636.0,-12.73,-44.61,-44.67,0,*68
1485403655.07,57569,9.06,73632.3,-12.73,-44.47,-44.79,0,*62
1485403656.31,57570,9.0,73630.5,-12.69,-44.61,-44.73,0,*6F
1485403657.54,57571,9.06,73628.0,-12.73,-44.79,-44.87,0,*67
1485403658.78,57572,9.06,73628.0,-12.75,-44.87,-44.99,0,*6C
1485403660.03,57573,9.06,73628.5,-12.75,-44.79,-44.87,0,*63
1485403661.27,57574,9.06,73632.3,-12.75,-44.61,-44.79,0,*6C
1485403662.5,57575,9.06,73632.3,-12.73,-44.67,-44.79,0,*6D
1485403663.76,57576,9.06,73634.3,-12.73,-44.67,-44.67,0,*61
1485403664.97,57577,9.06,73632.0,-12.69,-44.41,-44.41,0,*6B
1485403666.2,57578,9.06,73636.5,-12.73,-44.47,-44.61,0,*6B
1485403667.43,57579,9.06,73632.0,-12.73,-44.47,-44.61,0,*6A
1485403668.69,57580,9.06,73628.5,-12.73,-44.47,-44.67,0,*6A
1485403669.92,57581,9.06,73628.0,-12.73,-44.61,-44.67,0,*6F
1485403671.16,57582,9.06,73630.5,-12.73,-44.67,-44.87,0,*64
1485403672.39,57583,9.06,73630.5,-12.73,-44.47,-44.61,0,*6F
1485403673.64,57584,9.06,73634.0,-12.73,-44.47,-44.67,0,*6E
1485403674.88,57585,9.06,73638.8,-12.73,-44.47,-44.61,0,*69
1485403676.1,57586,9.06,73638.0,-12.73,-44.79,-44.87,0,*6F
1485403677.32,57587,9.06,73642.8,-12.73,-44.79,-44.87,0,*6E
1485403678.57,57588,9.06,73642.3,-12.75,-44.79,-44.99,0,*68
1485403679.81,57589,9.06,73640.3,-12.75,-44.79,-44.99,0,*69
1485403681.08,57590,9.06,73632.0,-12.75,-44.79,-45.07,0,*67
1485403682.34,57591,9.06,73632.3,-12.75,-44.99,-45.07,0,*68
1485403683.6,57592,9.06,73634.5,-12.73,-44.67,-44.67,0,*6B
1485403684.88,57593,9.06,73640.3,-12.75,-44.47,-44.67,0,*6E
1485403686.16,57594,9.06,73636.5,-12.75,-44.67,-44.67,0,*6B
1485403687.4,57595,9.06,73642.0,-12.77,-44.67,-44.87,0,*66
1485403688.66,57596,9.06,73638.8,-12.75,-44.67,-44.87,0,*67
1485403689.91,57597,9.06,73642.5,-12.75,-44.87,-44.99,0,*67
1485403691.14,57598,9.06,73636.3,-12.77,-44.53,-44.67,0,*62
1485403692.37,57599,9.06,73632.8,-12.77,-44.47,-44.53,0,*61
1485403693.63,57600,9.06,73634.0,-12.75,-44.61,-44.67,0,*63
1485403694.89,57601,9.0,73634.0,-12.75,-44.47,-44.61,0,*60
1485403696.14,57602,9.06,73634.5,-12.75,-44.41,-44.47,0,*61
1485403697.4,57603,9.06,73632.8,-12.75,-44.41,-44.47,0,*60
1485403698.65,57604,9.0,73630.3,-12.75,-44.41,-44.47,0,*67
1485403699.94,57605,9.06,73634.3,-12.75,-44.13,-44.21,0,*61